Location: Kapla
(46.2483°N, 15.0094°E)
Time: 18:34:11
(UTC+00:00)

Cosmos 1844 Rocket - Pass Details

Date: 03 March 2021
Orbit: 826 x 843 km, 71.0° (Epoch: 15 April)

Event Time Altitude Azimuth Distance (km) Brightness Sun altitude
Rises 18:22:26 0° 332° (NNW) 3,375 6.4 -16.9°
Reaches altitude 10° 18:24:52 10° 332° (NNW) 2,437 5.6 -17.3°
Maximum altitude 18:30:27 81° 246° (WSW) 842 2.7 -18.3°
Enters shadow 18:35:42 12° 160° (SSE) 2,308 4.7 -19.1°
